Home   Weather   Istanbul   Past weeks

Flag for Turkey Past Weather in Istanbul, Turkey — Yesterday and Last 2 Weeks

55 °F

Passing clouds.

Feels Like: 51 °F
Forecast: 55 / 61 °F
Wind: 20 mph from North

Location: Istanbul Ataturk Airport

Current Time: Oct 27, 2016 at 9:50:53 PM

Latest Report: Oct 27, 2016 at 8:50 PM

Visibility: N/A

Pressure: 30.30 "Hg

Humidity: 77%

Dew Point: 48 °F

Location of IstanbulLocation

Past Weather in Istanbul — Graph


Istanbul Temperature Yesterday

Maximum temperature yesterday: 63 °F (at 1:20 PM)
Minimum temperature yesterday: 57 °F (at 12:20 AM)
Average temperature yesterday: 59 °F

High & Low Weather Summary for the Past Weeks

High73 °F (Oct 12, 8:20 PM)94% (Oct 13, 1:50 AM)30.36 "Hg (Oct 13, 1:50 AM)
Low48 °F (Oct 20, 3:50 AM)39% (Oct 19, 2:50 PM)29.80 "Hg (Oct 12, 8:20 PM)
Average61 °F68%30.18 "Hg
* Reported Oct 12 8:20 PM — Oct 27 8:20 PM, Istanbul, Weather by CustomWeather, © 2016

Note: Actual official high and low records may vary slightly from our data, if they occured in-between our weather recording intervals... More about our weather records


Istanbul Weather History for the Previous 24 Hours

Scroll right to see more
Time TempWeatherWind HumidityBarometerVisibility
8:20 PM
Thu, Oct 27
54 °FPassing clouds.20 mph82%30.30 "HgN/A
7:50 PM54 °FPassing clouds.18 mph82%30.30 "HgN/A
7:20 PM54 °FPassing clouds.17 mph77%30.30 "HgN/A
6:50 PM54 °FPassing clouds.21 mph77%30.27 "HgN/A
6:20 PM54 °FPassing clouds.21 mph77%30.27 "HgN/A
5:50 PM54 °FPartly sunny.22 mph77%30.27 "HgN/A
5:20 PM54 °FScattered clouds.22 mph77%30.27 "HgN/A
4:50 PM54 °FScattered clouds.23 mph82%30.27 "HgN/A
4:20 PM54 °FPartly sunny.23 mph82%30.27 "HgN/A
3:50 PM55 °FBroken clouds.21 mph88%30.24 "Hg5 mi
3:20 PM55 °FBroken clouds.17 mph88%30.24 "Hg5 mi
2:50 PM55 °FLight rain. Broken clouds.17 mph88%30.24 "Hg5 mi
2:20 PM55 °FLight rain. Broken clouds.17 mph88%30.24 "Hg4 mi
1:50 PM55 °FSprinkles. Broken clouds.14 mph88%30.24 "Hg4 mi
1:20 PM57 °FPartly sunny.15 mph82%30.24 "HgN/A
12:50 PM59 °FPartly sunny.13 mph72%30.21 "HgN/A
12:20 PM61 °FPartly sunny.10 mph68%30.21 "HgN/A
11:50 AM61 °FPartly sunny.8 mph68%30.21 "HgN/A
11:20 AM59 °FPartly sunny.7 mph72%30.21 "HgN/A
10:50 AM59 °FPartly sunny.9 mph72%30.21 "HgN/A
10:20 AM59 °FPartly sunny.9 mph72%30.21 "HgN/A
9:50 AM59 °FPartly sunny.9 mph72%30.18 "HgN/A
9:20 AM59 °FPartly sunny.10 mph72%30.18 "HgN/A
8:50 AM59 °FPartly sunny.10 mph72%30.18 "HgN/A
8:20 AM59 °FPartly sunny.9 mph72%30.15 "HgN/A
7:50 AM59 °FPartly sunny.9 mph72%30.15 "HgN/A
7:20 AM59 °FPartly cloudy.7 mph72%30.15 "HgN/A
6:50 AM57 °FPartly cloudy.9 mph77%30.15 "HgN/A
6:20 AM59 °FPartly cloudy.7 mph72%30.15 "HgN/A
5:50 AM59 °FPartly cloudy.8 mph68%30.12 "HgN/A
5:20 AM59 °FPartly cloudy.8 mph68%30.12 "HgN/A
4:50 AM59 °FPartly cloudy.7 mph68%30.12 "HgN/A
4:20 AM57 °FPartly cloudy.7 mph72%30.12 "HgN/A
3:50 AM57 °FPartly cloudy.5 mph67%30.12 "HgN/A
3:20 AM57 °FPartly cloudy.6 mph67%30.09 "HgN/A
2:50 AM57 °FPassing clouds.7 mph67%30.12 "HgN/A
2:20 AM59 °FPassing clouds.7 mph63%30.09 "HgN/A
1:50 AM59 °FPassing clouds.6 mph63%30.09 "HgN/A
1:20 AM57 °FPassing clouds.7 mph63%30.09 "HgN/A
12:50 AM59 °FPassing clouds.7 mph59%30.09 "HgN/A
12:20 AM57 °FPassing clouds.7 mph63%30.09 "HgN/A
11:50 PM
Wed, Oct 26
57 °FClear.8 mph63%30.09 "Hg10 mi
11:20 PM57 °FPassing clouds.9 mph63%30.09 "HgN/A
10:50 PM61 °FPassing clouds.8 mph55%30.09 "HgN/A
10:20 PM59 °FClear.9 mph55%30.09 "Hg10 mi
9:50 PM59 °FClear.7 mph55%30.09 "Hg10 mi
9:20 PM61 °FPassing clouds.8 mph52%30.09 "HgN/A
Weather by CustomWeather, © 2016

See weather overviewHow to use our weather pages